When you browse on this site, cookies collect data to enhance your experience and personalize the content and advertising you see.
Visit our Privacy Policy to learn more. By continuing to use the site, you agree to this use of cookies and data.
  • In Österreich
  • Länderverzeichnis
  • Für 7 Tage
  • Wassertemperatur
  • Wetterkarte
  • News
  • Widgets
  • user-avatar
    Anmelden

    Stündliche Wetter Megri

    Heute, 20 Februar, Donnerstag

    Zeit Temperatur Niederschläge Wind Luftdruck Luftfeuchtigkeit
    00:00 +2°C° 0.5 mm 1 m/S 618 mmHg 97%
    01:00 +2°C° 1.3 mm 1 m/S 617 mmHg 97%
    02:00 +2°C° 1.3 mm 1 m/S 617 mmHg 98%
    03:00 +1°C° 1.3 mm 1 m/S 616 mmHg 98%
    04:00 +1°C° 0.7 mm 1 m/S 616 mmHg 98%
    05:00 +1°C° 0.7 mm 1 m/S 616 mmHg 98%
    06:00 +1°C° 0.7 mm 0 m/S 616 mmHg 98%
    07:00 +1°C° 0.9 mm 0 m/S 616 mmHg 98%
    08:00 +2°C° 0.9 mm 1 m/S 616 mmHg 99%
    09:00 +2°C° 0.9 mm 1 m/S 617 mmHg 99%
    10:00 +2°C° 0.1 mm 1 m/S 617 mmHg 99%
    11:00 +2°C° 0.1 mm 1 m/S 617 mmHg 99%
    12:00 +2°C° 0.1 mm 1 m/S 617 mmHg 99%
    13:00 +2°C° 0.1 mm 1 m/S 616 mmHg 99%
    14:00 +2°C° 0.1 mm 1 m/S 616 mmHg 99%
    15:00 +2°C° 0.1 mm 1 m/S 616 mmHg 99%
    16:00 +2°C° 0.1 mm 1 m/S 616 mmHg 99%
    17:00 +1°C° 0.1 mm 1 m/S 616 mmHg 98%
    18:00 +1°C° 0.1 mm 1 m/S 616 mmHg 98%
    19:00 +1°C° 0 mm 1 m/S 617 mmHg 98%
    20:00 +1°C° 0 mm 1 m/S 617 mmHg 97%
    21:00 0°C° 0 mm 1 m/S 617 mmHg 97%
    22:00 0°C° 0 mm 1 m/S 617 mmHg 97%
    23:00 0°C° 0 mm 1 m/S 617 mmHg 96%

    Morgen, 21 Februar, Freitag

    Zeit Temperatur Niederschläge Wind Luftdruck Luftfeuchtigkeit
    00:00 0°C° 0 mm 1 m/S 617 mmHg 96%
    01:00 0°C° 0 mm 1 m/S 617 mmHg 96%
    02:00 0°C° 0 mm 1 m/S 617 mmHg 95%
    03:00 0°C° 0 mm 1 m/S 617 mmHg 95%
    04:00 0°C° 0 mm 1 m/S 617 mmHg 95%
    05:00 0°C° 0 mm 1 m/S 617 mmHg 94%
    06:00 0°C° 0 mm 1 m/S 618 mmHg 94%
    07:00 0°C° 0 mm 1 m/S 618 mmHg 94%
    08:00 -1°C° 0 mm 2 m/S 618 mmHg 95%
    09:00 -1°C° 0 mm 2 m/S 619 mmHg 95%
    16:00 +1°C° 0 mm 2 m/S 619 mmHg 94%
    17:00 -1°C° 0 mm 2 m/S 619 mmHg 94%
    18:00 -1°C° 0 mm 2 m/S 619 mmHg 93%
    19:00 -1°C° 0 mm 2 m/S 619 mmHg 92%
    20:00 -1°C° 0 mm 2 m/S 619 mmHg 92%
    21:00 -1°C° 0 mm 2 m/S 619 mmHg 92%
    22:00 -1°C° 0 mm 2 m/S 619 mmHg 92%
    23:00 -1°C° 0 mm 2 m/S 619 mmHg 92%

    übermorgen, 22 Februar, Samstag

    Zeit Temperatur Niederschläge Wind Luftdruck Luftfeuchtigkeit
    00:00 -1°C° 0 mm 2 m/S 619 mmHg 92%
    01:00 +1°C° 0 mm 1 m/S 619 mmHg 92%
    02:00 +1°C° 0 mm 1 m/S 619 mmHg 93%
    03:00 +1°C° 0 mm 1 m/S 619 mmHg 93%
    04:00 +1°C° 0 mm 1 m/S 620 mmHg 93%
    05:00 +1°C° 0 mm 1 m/S 620 mmHg 93%
    06:00 +1°C° 0 mm 1 m/S 620 mmHg 93%
    07:00 +2°C° 0 mm 1 m/S 620 mmHg 93%
    08:00 +2°C° 0 mm 1 m/S 620 mmHg 93%
    09:00 +2°C° 0 mm 1 m/S 620 mmHg 93%
    10:00 +3°C° 0 mm 1 m/S 620 mmHg 93%
    11:00 +3°C° 0 mm 1 m/S 620 mmHg 93%
    12:00 +3°C° 0 mm 1 m/S 620 mmHg 92%
    13:00 +3°C° 0 mm 1 m/S 620 mmHg 92%
    14:00 +3°C° 0 mm 1 m/S 620 mmHg 91%
    15:00 +3°C° 0 mm 1 m/S 619 mmHg 91%
    16:00 +3°C° 0 mm 1 m/S 619 mmHg 89%
    17:00 +2°C° 0 mm 1 m/S 619 mmHg 88%
    18:00 +1°C° 0 mm 1 m/S 619 mmHg 87%
    19:00 +1°C° 0 mm 1 m/S 619 mmHg 86%
    20:00 +1°C° 0 mm 1 m/S 619 mmHg 84%
    21:00 +1°C° 0 mm 1 m/S 619 mmHg 83%
    22:00 +1°C° 0 mm 1 m/S 619 mmHg 85%
    23:00 +1°C° 0 mm 1 m/S 620 mmHg 86%

    23 Februar, Sonntag

    Zeit Temperatur Niederschläge Wind Luftdruck Luftfeuchtigkeit
    00:00 +2°C° 0 mm 1 m/S 620 mmHg 87%
    01:00 +2°C° 0.2 mm 1 m/S 620 mmHg 90%
    02:00 +2°C° 0.2 mm 1 m/S 620 mmHg 92%
    03:00 +2°C° 0.2 mm 1 m/S 620 mmHg 94%
    04:00 +1°C° 0.2 mm 1 m/S 620 mmHg 94%
    05:00 +1°C° 0.2 mm 1 m/S 620 mmHg 95%
    06:00 +1°C° 0.2 mm 1 m/S 620 mmHg 95%
    07:00 +2°C° 0.1 mm 1 m/S 621 mmHg 95%
    08:00 +2°C° 0.1 mm 1 m/S 621 mmHg 94%
    09:00 +3°C° 0.1 mm 1 m/S 621 mmHg 94%
    10:00 +3°C° 0 mm 1 m/S 621 mmHg 93%
    11:00 +3°C° 0 mm 1 m/S 621 mmHg 93%
    12:00 +4°C° 0 mm 1 m/S 621 mmHg 92%
    13:00 +4°C° 0 mm 1 m/S 620 mmHg 91%
    14:00 +4°C° 0 mm 1 m/S 620 mmHg 91%
    15:00 +4°C° 0 mm 1 m/S 620 mmHg 90%
    16:00 +3°C° 0 mm 1 m/S 620 mmHg 91%
    17:00 +2°C° 0 mm 1 m/S 620 mmHg 92%
    18:00 +2°C° 0 mm 1 m/S 620 mmHg 93%
    19:00 +2°C° 0 mm 1 m/S 620 mmHg 92%
    20:00 +1°C° 0 mm 1 m/S 620 mmHg 92%
    21:00 +1°C° 0 mm 1 m/S 620 mmHg 91%
    22:00 +1°C° 0 mm 1 m/S 620 mmHg 91%
    23:00 +1°C° 0 mm 1 m/S 620 mmHg 91%

    24 Februar, Montag

    Zeit Temperatur Niederschläge Wind Luftdruck Luftfeuchtigkeit
    00:00 +1°C° 0 mm 1 m/S 619 mmHg 91%
    01:00 0°C° 0 mm 1 m/S 619 mmHg 91%
    02:00 0°C° 0 mm 1 m/S 619 mmHg 91%
    03:00 0°C° 0 mm 1 m/S 619 mmHg 91%
    04:00 0°C° 0 mm 1 m/S 618 mmHg 91%
    05:00 0°C° 0 mm 1 m/S 618 mmHg 91%
    06:00 0°C° 0 mm 1 m/S 618 mmHg 91%
    07:00 +1°C° 0 mm 1 m/S 618 mmHg 89%
    08:00 +2°C° 0 mm 1 m/S 619 mmHg 88%
    09:00 +2°C° 0 mm 2 m/S 619 mmHg 87%
    10:00 +2°C° 0 mm 2 m/S 619 mmHg 86%
    11:00 +2°C° 0 mm 2 m/S 618 mmHg 85%
    12:00 +3°C° 0 mm 2 m/S 618 mmHg 85%
    13:00 +3°C° 0 mm 2 m/S 617 mmHg 84%
    14:00 +3°C° 0 mm 2 m/S 617 mmHg 83%
    15:00 +4°C° 0 mm 2 m/S 616 mmHg 82%
    16:00 +3°C° 0 mm 2 m/S 615 mmHg 83%
    17:00 +2°C° 0 mm 2 m/S 615 mmHg 84%
    18:00 +1°C° 0 mm 2 m/S 614 mmHg 85%
    19:00 +1°C° 0 mm 2 m/S 614 mmHg 85%
    20:00 -1°C° 0 mm 2 m/S 614 mmHg 84%
    21:00 -1°C° 0 mm 2 m/S 614 mmHg 84%
    22:00 -1°C° 0 mm 2 m/S 613 mmHg 83%
    23:00 -1°C° 0 mm 2 m/S 613 mmHg 83%

    25 Februar, Dienstag

    Zeit Temperatur Niederschläge Wind Luftdruck Luftfeuchtigkeit
    00:00 -1°C° 0 mm 2 m/S 612 mmHg 83%
    01:00 -1°C° 0 mm 2 m/S 612 mmHg 84%
    02:00 -1°C° 0 mm 2 m/S 612 mmHg 85%
    03:00 -1°C° 0 mm 2 m/S 611 mmHg 86%
    04:00 -1°C° 0 mm 2 m/S 611 mmHg 87%
    05:00 -1°C° 0 mm 2 m/S 611 mmHg 88%
    06:00 -1°C° 0 mm 2 m/S 610 mmHg 90%
    07:00 +1°C° 0 mm 2 m/S 610 mmHg 88%
    08:00 +2°C° 0 mm 1 m/S 610 mmHg 86%
    09:00 +3°C° 0 mm 1 m/S 610 mmHg 84%
    10:00 +3°C° 0 mm 1 m/S 609 mmHg 83%
    11:00 +4°C° 0 mm 1 m/S 609 mmHg 82%
    12:00 +4°C° 0 mm 1 m/S 609 mmHg 81%
    13:00 +4°C° 0.2 mm 1 m/S 608 mmHg 84%
    14:00 +4°C° 0.2 mm 1 m/S 608 mmHg 88%
    15:00 +3°C° 0.2 mm 1 m/S 607 mmHg 91%
    16:00 +3°C° 0.9 mm 1 m/S 607 mmHg 93%
    17:00 +1°C° 0.9 mm 2 m/S 607 mmHg 95%
    18:00 -1°C° 0.9 mm 2 m/S 608 mmHg 96%
    19:00 -1°C° 1.2 mm 2 m/S 608 mmHg 96%
    20:00 -2°C° 1.2 mm 2 m/S 608 mmHg 95%
    21:00 -3°C° 1.2 mm 2 m/S 609 mmHg 95%
    22:00 -3°C° 0.5 mm 2 m/S 609 mmHg 94%
    23:00 -4°C° 0.5 mm 2 m/S 609 mmHg 94%
    Mehr zeigen